Location: Holyhead Bay
(53.3667°N, 4.6667°W)
Time: 19:55:38
(UTC+00:00)

Cosmos 2341 Rocket - Pass Details

Date: 24 November 2020
Orbit: 969 x 1003 km, 82.9° (Epoch: 17 January)

Event Time Altitude Azimuth Distance (km) Brightness Sun altitude
Rises 17:23:02 0° 350° (N) 3,688 6.9 -10.4°
Reaches altitude 10° 17:25:38 10° 356° (N) 2,741 6.2 -10.8°
Maximum altitude 17:31:46 52° 72° (ENE) 1,216 4.1 -11.7°
Drops below altitude 10° 17:37:53 10° 148° (SSE) 2,747 6.2 -12.5°
Sets 17:40:29 0° 154° (SSE) 3,696 6.9 -12.9°
